TimeEST,TemperatureF,Dew PointF,Humidity,Sea Level PressureIn,VisibilityMPH,Wind Direction,Wind SpeedMPH,Gust SpeedMPH,PrecipitationIn,Events,Conditions,WindDirDegrees,DateUTC
12:56 AM,3.0,-11.0,52,30.16,10.0,West,6.9,-,N/A,,Clear,270,2013-01-24 05:56:00
1:56 AM,1.9,-11.0,55,30.17,10.0,WNW,6.9,-,N/A,,Clear,300,2013-01-24 06:56:00
2:56 AM,1.9,-11.0,55,30.16,10.0,NW,6.9,-,N/A,,Clear,310,2013-01-24 07:56:00
3:56 AM,1.0,-11.9,55,30.16,10.0,WNW,5.8,-,N/A,,Clear,290,2013-01-24 08:56:00
4:56 AM,1.0,-11.9,55,30.15,10.0,WNW,3.5,-,N/A,,Clear,290,2013-01-24 09:56:00
5:56 AM,1.0,-13.0,52,30.16,10.0,West,5.8,-,N/A,,Clear,270,2013-01-24 10:56:00
6:56 AM,-0.9,-11.9,60,30.17,10.0,WSW,4.6,-,N/A,,Clear,250,2013-01-24 11:56:00
7:56 AM,1.9,-11.0,55,30.18,10.0,West,5.8,-,N/A,,Clear,270,2013-01-24 12:56:00
8:56 AM,5.0,-11.9,46,30.18,10.0,WNW,12.7,-,N/A,,Clear,290,2013-01-24 13:56:00
9:56 AM,8.1,-11.0,42,30.17,10.0,WNW,12.7,-,N/A,,Clear,290,2013-01-24 14:56:00
10:56 AM,12.9,-9.9,35,30.16,10.0,WNW,13.8,-,N/A,,Clear,300,2013-01-24 15:56:00
11:56 AM,15.1,-9.9,32,30.14,10.0,NNW,13.8,23.0,N/A,,Clear,330,2013-01-24 16:56:00
12:56 PM,17.1,-11.0,28,30.12,10.0,NW,16.1,32.2,N/A,,Clear,310,2013-01-24 17:56:00
1:56 PM,18.0,-11.0,27,30.11,10.0,WNW,23.0,28.8,N/A,,Mostly Cloudy,290,2013-01-24 18:56:00
2:56 PM,19.0,-13.0,24,30.11,10.0,WNW,23.0,33.4,N/A,,Partly Cloudy,300,2013-01-24 19:56:00
3:56 PM,19.0,-11.9,25,30.13,10.0,NW,18.4,25.3,N/A,,Clear,320,2013-01-24 20:56:00
4:56 PM,16.0,-13.0,27,30.14,10.0,WNW,17.3,25.3,N/A,,Clear,290,2013-01-24 21:56:00
5:56 PM,16.0,-13.0,27,30.16,10.0,West,11.5,20.7,N/A,,Clear,280,2013-01-24 22:56:00
6:56 PM,15.1,-11.0,31,30.19,10.0,West,9.2,-,N/A,,Clear,270,2013-01-24 23:56:00
7:56 PM,12.9,-9.0,37,30.20,10.0,West,9.2,18.4,N/A,,Clear,280,2013-01-25 00:56:00
8:56 PM,12.9,-13.0,31,30.21,10.0,WNW,19.6,29.9,N/A,,Clear,290,2013-01-25 01:56:00
9:56 PM,12.9,-16.1,26,30.23,10.0,NW,17.3,32.2,N/A,,Clear,310,2013-01-25 02:56:00
10:56 PM,10.9,-15.0,30,30.24,10.0,NW,20.7,28.8,N/A,,Clear,310,2013-01-25 03:56:00
11:56 PM,10.0,-14.1,33,30.26,10.0,WNW,17.3,26.5,N/A,,Clear,300,2013-01-25 04:56:00